Aeroporto :
LOGIN :

Iscrizione | Disclaimer

   EN    FR    IT 

 










Sommario :    VFR   VFR Marginale   IFR   IFR Intensivo   IFR Molto Intensivo
Visibilità : 
Base nubi : 
>= 8 km
>= 3000ft
5 / 8 km
1000 / 3000 ft
1500m / 5 km
500 / 1000 ft
800 / 1500m
200 / 500 ft
< 800m
< 200 ft
Simboli :   Temporali  Nebbia  Neve Forte  Precipitazioni Forti  Vento > 20 kt
SIGMETs :   Varie  Temporali  Ghiacco  Turbolenza  Onda orograficha  Ceneri Vulcaniche






- Altitudine del aeroporto : 289 ft


LIRG - Guidonia

ULTIMO METAR :
  • 211555Z 29006KT CAVOK 16/04 Q1023 RMK SKC MON NE LIB NC VIS MIN 9999 BLU

METARs OBSOLETI :
  • 211455Z 28005KT CAVOK 16/02 Q1023 RMK SKC MON NE LIB NC VIS MIN 9999 BLU
  • 211355Z 31007KT 250V350 CAVOK 16/02 Q1023 RMK SKC MON NE LIB NC VIS MIN 9999 BLU
  • 211255Z 28007KT 240V310 CAVOK 16/M01 Q1023 RMK SKC MON NE LIB NC VIS MIN 9999 BLU

TAF TAF LIRG
Valido dal 21 a 15 ore il 22 a 00 ore UTC


211400Z 2115/2124 VRB03KT CAVOK



MetMap, La meteo Aeronautica in un colpo d'occhio ! - Copyright ORBIFLY Dicembre 2007 - Disclaimer

ORBIFLY MET'MAP TEAM :

Programmazione e sviluppo : Alexandra Zaïnal
Concezione : Baudouin d'Aumeries
Aiuto per la programmazione : Marc-Olivier Méhu
Supporto tecnico e logistico : Manuel Goepfert
Aiuto per la traduzione : Arnaldo La Scala

Contatto : metmap@orbifly.com




FONTI E CREDITI :

   NOAA